EHI
0 0 0 0 0 0 0 1 1 1 0 0 0 0 0 0 0 0 0 0 0 0 0 0 0 0 0 0 1 2 2 1 3 4 3 3 2 1 0 0 0 0 0 0
0 0 0 0 0 0 0 0 0 0 0 0 0 0 0 0 0 0 0 0 0 0 0 0 0 0 0 0 1 1 1 1 2 4 3 3 2 1 0 0 0 0 0 0
0 0 0 0 0 0 0 0 0 0 0 0 0 0 0 0 0 0 0 0 0 0 0 0 0 1 1 1 2 2 2 2 3 4 4 4 3 1 0 0 0 0 0 0
0 0 0 0 0 0 0 0 0 0 0 0 0 0 0 0 0 0 0 0 0 0 1 1 1 1 2 2 3 3 3 3 4 4 4 5 3 1 0 0 0 0 0 0
0 0 0 0 0 0 0 0 0 0 0 0 0 0 0 0 0 0 0 0 0 1 2 2 1 1 2 3 4 5 4 4 3 4 5 6 4 2 1 0 0 0 0 0
0 0 0 0 0 0 0 0 0 0 0 0 0 0 0 0 0 0 0 1 1 2 2 2 1 2 3 5 6 6 6 5 4 5 6 6 5 3 2 1 0 0 0 0
0 0 0 0 0 0 0 0 0 0 0 0 0 0 0 0 0 0 0 1 2 2 2 2 3 3 5 7 8 8 8 7 7 7 6 6 6 4 2 1 0 0 0 0
0 0 0 0 0 0 0 0 0 0 0 0 0 0 0 0 0 0 0 1 2 2 1 2 4 5 7 10 10 9 8 8 8 8 7 6 5 4 2 0 0 0 0 0
0 0 0 0 0 0 0 0 0 0 0 0 0 0 0 0 0 0 0 0 1 1 0 1 4 6 8 10 11 9 6 7 8 8 7 6 5 3 2 0 0 0 0 0
0 0 0 0 0 0 0 0 0 0 0 0 0 0 0 0 0 0 0 0 0 0 0 0 1 3 6 8 9 7 4 5 7 5 5 6 4 2 1 0 0 0 0 0
0 0 0 0 0 0 0 0 0 0 0 0 0 0 0 0 0 0 0 0 0 0 0 0 0 1 3 5 5 5 4 5 5 3 3 5 3 1 0 0 0 0 0 0
0 0 0 0 0 0 0 0 0 0 0 0 0 0 0 0 0 0 0 0 0 0 0 0 0 0 1 1 2 3 3 4 4 3 3 2 1 0 0 0 0 0 0 0
0 0 0 0 0 0 0 0 0 0 0 0 0 0 0 0 0 0 0 0 0 0 0 0 0 0 0 0 0 1 1 2 3 3 3 1 0 0 0 0 0 0 0 0
0 0 0 0 0 0 0 0 0 0 0 0 0 0 0 0 0 0 0 0 0 1 1 1 0 0 0 0 0 0 0 1 1 2 2 1 0 0 0 0 0 0 0 0
0 0 0 0 0 0 0 0 0 0 0 0 0 0 0 0 0 0 0 0 0 1 2 2 1 0 0 0 0 0 0 0 0 0 1 1 0 0 0 0 0 0 0 0
0 0 0 0 0 0 0 0 0 0 0 0 0 0 0 0 0 0 0 0 1 2 2 2 1 0 0 0 0 0 0 0 0 0 0 0 0 0 0 0 0 0 0 0
0 0 0 0 0 0 0 0 0 0 0 0 0 0 0 0 0 0 0 0 1 1 1 2 2 1 0 0 0 1 1 0 0 0 0 0 0 0 0 0 0 0 0 0
0 0 0 0 0 0 0 0 0 0 0 0 0 0 0 0 0 0 0 0 0 0 0 1 2 1 0 0 1 2 2 1 0 0 0 0 0 0 0 0 0 0 0 0
0 0 0 0 0 0 0 0 0 0 0 0 0 0 0 0 0 0 0 0 0 0 0 1 2 2 1 0 1 3 2 1 0 0 0 0 0 0 0 0 0 0 0 0
0 0 0 0 0 0 0 0 0 0 0 0 0 0 0 0 0 0 0 0 0 0 0 1 2 2 1 1 2 2 2 1 0 0 0 0 0 0 0 0 0 0 0 0
0 0 0 0 0 0 0 0 0 0 0 0 0 0 0 0 0 0 0 0 0 0 1 1 1 1 1 1 2 1 1 0 0 0 0 0 0 0 0 0 0 0 0 0
0 0 0 0 0 0 0 0 0 0 0 0 0 0 0 0 0 0 0 0 0 0 0 0 0 1 1 1 1 0 0 0 0 1 1 1 0 0 0 0 0 0 0 0
0 0 0 0 0 0 0 0 0 0 0 0 0 0 0 0 0 0 0 0 0 0 0 0 1 2 2 1 1 1 1 1 1 2 2 2 1 1 1 0 0 0 0 0
0 0 0 0 0 0 0 0 0 0 0 0 0 0 0 0 0 0 0 0 0 0 0 0 0 1 1 1 1 2 2 2 3 3 3 2 2 2 1 0 0 0 0 0
0 0 0 0 0 0 0 0 0 0 0 0 0 0 0 0 0 0 0 0 0 0 0 0 0 0 0 0 1 1 2 2 2 2 2 1 1 1 1 0 0 0 0 0
0 0 0 0 0 0 0 0 0 0 0 0 0 0 0 0 0 0 0 0 0 0 0 0 0 0 0 0 0 0 1 1 1 1 1 0 0 0 0 0 0 0 0 0
Wind_Speed
7 6 5 5 5 5 4 3 2 2 4 4 5 5 5 6 7 6 6 6 6 6 7 6 5 4 4 3 3 4 4 4 3 2 2 2 2 2 2 2 2 3 4 4
6 7 5 4 4 5 6 4 3 3 3 3 5 6 6 7 7 6 6 5 5 5 7 7 6 5 4 4 3 3 4 4 4 2 2 1 1 1 1 2 3 3 3 3
7 3 4 5 5 6 6 5 4 4 4 6 6 6 6 7 7 6 5 4 4 5 6 7 7 6 4 4 3 3 3 4 4 3 2 2 1 2 2 1 1 2 2 3
6 4 4 5 6 6 6 4 5 6 6 5 7 5 5 7 8 7 6 4 4 4 4 6 7 6 6 4 4 3 3 3 3 3 2 2 1 1 0 1 0 1 1 2
4 4 6 7 5 5 5 5 7 9 9 9 8 7 4 7 8 7 6 5 4 4 5 6 6 6 6 5 4 3 3 3 3 3 3 2 1 1 1 1 1 1 1 1
6 5 5 5 4 5 6 7 9 9 8 9 8 7 2 4 6 7 6 5 5 4 5 5 6 6 5 5 4 3 3 3 3 2 3 3 2 1 1 0 0 0 0 1
9 9 7 5 6 7 8 6 4 4 5 6 4 5 2 3 5 5 6 5 4 4 4 5 6 6 5 5 5 4 3 3 3 3 2 2 2 2 2 1 1 0 0 1
7 7 8 6 6 5 7 7 5 4 4 2 3 3 4 5 5 5 5 6 4 5 4 4 5 6 5 5 5 4 4 3 3 3 2 2 2 1 1 1 1 0 0 0
5 3 6 5 5 6 6 6 7 7 8 6 3 3 4 6 5 5 5 5 4 4 5 4 5 6 5 5 4 4 4 3 3 2 2 1 2 2 1 1 0 0 0 0
7 6 4 5 5 8 8 7 5 5 5 6 5 3 3 5 4 3 4 4 4 4 4 4 4 4 4 4 3 3 3 3 2 1 1 1 1 1 1 1 1 0 0 0
7 8 6 7 7 7 8 8 7 5 5 5 4 1 2 4 4 4 3 4 3 3 4 4 4 4 4 4 3 2 3 2 2 1 1 1 1 1 1 1 1 1 1 1
4 5 7 6 4 5 7 8 7 5 5 5 5 1 1 3 3 3 3 3 3 3 4 4 4 4 3 3 3 3 2 2 2 2 2 2 1 1 0 1 1 1 1 1
4 5 6 5 5 6 7 7 7 7 6 6 6 1 3 3 2 2 3 3 3 3 4 4 4 4 3 3 3 3 2 2 2 2 2 2 1 1 0 1 0 0 0 1
4 7 8 7 4 4 6 7 7 7 6 7 7 3 1 2 1 2 2 3 3 3 3 3 3 3 3 2 2 2 2 2 2 2 2 2 1 1 1 1 0 1 1 1
5 8 10 9 8 8 9 9 9 10 9 9 8 6 3 1 1 1 1 2 3 3 3 3 2 2 2 2 2 2 2 2 2 2 2 2 1 1 1 1 0 0 1 1
6 8 8 10 10 9 11 11 11 11 10 11 10 6 1 1 2 1 1 1 2 2 2 2 2 2 2 3 2 2 1 2 2 2 2 1 1 1 1 1 1 0 1 1
5 7 7 8 8 9 10 8 8 8 8 7 7 4 2 2 3 1 0 1 2 2 1 1 1 1 1 2 2 2 1 2 2 2 2 1 1 1 1 1 1 1 1 0
7 7 5 7 8 10 2 1 2 3 4 4 2 2 3 2 2 3 2 1 1 2 1 1 1 0 0 1 1 2 2 2 2 2 2 2 1 1 0 1 1 1 1 1
6 6 5 5 7 8 3 1 2 3 3 3 3 2 3 2 1 1 3 3 2 2 2 1 1 1 1 1 1 1 2 2 2 2 1 1 2 1 1 1 1 1 1 1
6 6 6 5 6 7 1 3 3 3 2 3 3 3 2 2 2 1 4 3 3 2 2 2 1 1 1 1 2 1 0 1 1 1 1 1 1 2 2 2 1 1 1 1
5 7 8 8 8 5 1 1 1 2 1 4 4 3 3 2 2 3 4 4 3 2 2 2 1 1 1 2 1 0 0 1 1 1 1 1 1 1 1 0 1 1 1 1
5 5 6 6 7 4 2 0 1 2 4 4 4 4 4 4 4 4 4 4 3 2 2 2 1 1 1 1 1 0 0 0 1 1 1 1 1 0 0 0 1 1 1 1
4 3 2 3 1 2 1 2 3 4 4 4 4 4 3 3 3 4 4 3 3 2 2 1 1 0 1 1 1 0 0 1 1 1 1 1 1 1 1 0 1 1 1 1
3 2 4 4 2 1 2 2 3 3 3 4 4 4 3 3 2 2 3 3 2 2 2 1 1 0 0 1 1 1 1 1 1 1 1 1 1 0 0 0 0 1 1 1
4 3 4 6 3 2 1 2 3 3 3 3 3 3 3 3 2 2 2 3 2 2 2 1 1 1 1 0 1 1 1 1 0 0 0 0 0 0 0 1 1 1 1 1
6 6 5 4 2 2 2 1 2 2 3 3 3 3 3 2 3 3 2 2 2 2 2 1 1 1 1 1 1 1 0 0 1 1 1 1 1 1 1 1 1 3 1 2
Wind_Direction
209 227 231 234 237 259 273 264 256 233 169 198 219 220 201 196 188 189 184 187 182 172 164 157 148 139 131 117 103 111 113 96 88 75 72 69 48 36 41 34 38 37 26 23
213 223 234 246 253 251 265 261 252 245 216 229 231 234 214 200 190 193 190 186 182 177 162 153 148 144 143 135 126 115 116 110 103 91 93 95 85 52 57 33 26 26 30 18
227 220 200 229 244 248 245 256 265 266 257 249 251 246 224 184 179 176 179 181 178 176 162 153 154 154 149 144 138 123 119 117 113 107 88 70 59 38 38 41 31 3 20 23
237 233 229 231 242 257 258 267 270 270 264 253 242 253 226 184 174 173 173 174 173 170 161 153 154 156 154 150 140 134 129 125 126 125 114 109 98 87 344 41 62 14 21 27
240 220 228 242 249 266 280 287 269 263 263 266 252 259 217 173 178 167 165 165 167 167 163 156 152 156 158 156 151 151 148 142 142 145 147 154 140 149 107 63 48 20 359 3
247 245 241 250 252 255 271 265 259 253 253 256 246 248 207 185 168 155 155 153 159 161 158 153 150 150 156 153 149 157 159 149 150 164 167 170 150 140 126 97 83 348 350 320
224 220 215 227 246 226 242 258 256 237 226 239 223 234 153 131 124 137 145 146 150 151 152 154 154 151 150 150 155 166 159 161 167 185 192 188 161 168 169 177 184 180 113 325
239 212 195 201 236 252 245 250 260 275 273 270 234 220 125 123 124 130 132 133 142 143 139 145 149 147 154 159 162 169 170 178 182 191 202 187 158 157 143 166 130 135 141 204
283 216 168 183 224 254 254 251 269 280 287 284 241 166 154 132 134 140 141 135 140 142 140 146 147 147 154 159 163 173 170 171 184 192 168 153 156 144 139 173 122 162 194 231
282 280 212 181 213 230 254 274 267 260 276 277 271 235 161 151 152 142 136 135 140 139 137 136 133 141 148 147 158 172 163 166 164 142 129 110 106 105 142 163 186 224 254 77
277 274 238 201 211 225 226 243 258 268 262 272 287 344 101 137 144 148 134 124 134 131 130 129 134 140 144 141 144 145 142 140 145 158 141 137 138 172 154 184 218 234 268 256
269 275 265 233 212 232 247 252 258 265 273 275 276 251 75 111 119 131 132 129 128 122 125 124 130 132 132 134 139 144 150 153 156 167 161 152 166 185 183 226 228 240 257 283
318 272 268 236 208 210 233 243 257 271 273 267 269 209 129 111 109 109 117 117 124 125 123 123 124 127 136 138 147 148 148 145 150 157 151 155 157 169 203 267 273 292 275 281
295 267 266 269 282 273 252 254 257 263 264 271 274 281 168 128 111 78 103 120 126 121 113 107 117 137 141 152 153 149 152 155 154 152 153 149 158 164 191 211 228 269 284 286
260 265 274 282 287 280 273 268 259 254 262 271 284 294 294 321 109 90 61 109 122 123 117 121 131 142 151 165 158 144 163 160 152 150 143 141 152 147 151 144 228 294 305 298
251 270 277 279 275 275 270 264 260 259 260 266 276 283 290 1 44 66 37 99 118 116 117 129 149 163 177 173 159 149 158 150 145 147 143 143 142 133 151 176 195 242 272 277
249 269 283 279 279 277 263 259 253 252 255 267 272 294 342 10 2 18 15 106 116 115 115 143 170 180 195 160 153 154 153 154 156 143 129 124 120 120 157 205 185 218 247 249
268 274 272 274 277 259 246 354 318 275 275 291 290 343 358 6 5 9 20 74 120 119 112 90 83 99 128 124 144 144 138 144 133 122 134 136 136 144 185 198 220 233 228 226
246 258 264 265 272 272 247 343 337 297 298 350 341 4 7 21 10 24 28 39 66 98 102 99 98 81 86 62 72 125 145 130 123 128 138 139 140 157 200 220 226 234 225 242
232 242 250 259 264 266 343 39 0 309 272 28 16 8 355 339 302 11 32 27 56 62 75 79 81 81 92 79 57 59 113 113 121 137 144 139 162 185 209 224 227 233 232 245
212 226 235 250 257 262 20 19 302 262 15 21 12 9 4 2 4 12 22 25 41 51 68 72 82 85 101 99 82 6 49 78 107 111 126 131 152 198 200 200 243 229 223 243
232 232 237 243 249 251 48 59 317 9 27 16 9 17 22 20 23 18 19 24 31 32 44 52 56 69 96 114 112 345 330 53 81 114 139 138 141 240 84 184 238 237 216 235
239 250 261 255 254 69 59 52 23 17 9 1 356 9 21 23 25 14 10 9 10 24 37 50 45 30 88 98 104 278 26 65 77 93 122 132 118 61 44 267 226 232 224 240
271 285 269 268 250 351 50 39 22 7 352 352 3 8 12 12 12 5 355 350 352 12 21 26 30 2 2 111 105 76 70 89 116 144 158 135 126 99 24 319 257 231 218 228
304 306 282 278 284 301 46 21 6 346 346 358 4 7 1 353 355 352 346 346 356 8 5 360 354 318 315 75 98 75 77 93 149 188 184 156 142 128 70 29 6 340 319 247
269 265 259 264 273 284 302 329 350 348 350 358 2 2 2 349 342 351 348 349 358 354 349 341 311 300 316 7 65 49 50 145 194 198 205 182 164 154 145 136 23 12 344 359